Regional Weather Roundup
Issued by NWS

Home | Current Version | Previous Version | Text Only | Print | Product List | Glossary Off
Versions: 1 2 3 4 5 6 7 8 9 10 11 12 13 14 15 16 17 18 19 20 21 22 23 24 25 26 27 28 29 30 31 32 33 34 35 36 37 38 39 40 41 42 43 44 45 46 47 48 49 50

000
ASUS43 KMPX 050210
RWRMN
WEATHER ROUNDUP FOR MINNESOTA
NATIONAL WEATHER SERVICE TWIN CITIES/CHANHASSEN MN
800 PM CST WED MAR 04 2015


NOTE: "FAIR" INDICATES FEW OR NO CLOUDS BELOW 12,000 FEET WITH NO
SIGNIFICANT WEATHER AND/OR OBSTRUCTIONS TO VISIBILITY. N/A MEANS
CURRENT SKY AND/OR WEATHER CONDITIONS ARE NOT AVAILABLE.

MNZ060>063-068>070-050300-
   Twin Cities Metro

CITY           SKY/WX    TMP DP  RH WIND       PRES   REMARKS
TWIN CITIES    PTCLDY     2 -11  54 NW12      30.35R WCI -15
ST PAUL        CLEAR      3 -11  52 NW18      30.37R WCI -17
CRYSTAL        CLEAR      2 -13  49 NW9       30.35R WCI -13
BLAINE         CLEAR      1 -11  55 NW10G17   30.34R WCI -14
LAKEVILLE      CLEAR      0  -8  71 NW10G18   30.33S WCI -17
EDEN PRAIRIE   CLEAR      2 -10  57 NW8       30.35R WCI -12
SOUTH ST PAUL  CLEAR      4 -10  50 NW15      30.35R WCI -14
LAKE ELMO      FAIR       3  -9  55 NW10      30.34S WCI -12
$$
MNZ001>005-007-008-013>017-022>024-027-028-050300-
   Northwest Minnesota

CITY           SKY/WX    TMP DP  RH WIND       PRES   REMARKS
BEMIDJI        CLEAR     -8 -14  75 W8        30.29R WCI -24
HALLOCK        CLEAR     -6 -13  71 W2        30.36S
ROSEAU         CLEAR     -6 -13  71 W8        30.31S WCI -21
WARROAD        FAIR      -8 -15  71 W7        30.30S WCI -22
THIEF RVR FALL CLEAR     -6  -8  92 W5        30.33S WCI -17
CROOKSTON      CLEAR     -4  -9  77 NW5       30.39R WCI -15
FOSSTON        CLEAR    -11 -17  77 CALM      30.33S
DETROIT LAKES  CLEAR     -4  -8  84 NW7       30.33R WCI -18
MOORHEAD       FAIR       1  -6  71 NW9       30.40R WCI -14
PARK RAPIDS    CLEAR     -7 -15  68 NW7       30.28R WCI -21
MAHNOMEN       FAIR      -6 -11  77 CALM      30.33S
$$
MNZ006-009>011-018-025>026-050300-
   North Central Minnesota

CITY           SKY/WX    TMP DP  RH WIND       PRES   REMARKS
BAUDETTE       CLEAR     -6 -15  65 W8        30.26R WCI -21
FLAG ISLAND    CLEAR     -4 -15  59 W6        30.27R WCI -16
INTL FALLS     CLEAR     -7 -15  68 W6        30.25R WCI -20
WASKISH        CLEAR     -8 -11  84 W8        30.28S WCI -23
BIG FORK       CLEAR     -6 -11  77 W3        30.25S
LONGVILLE      CLEAR     -6 -15  65 NW3       30.29S
GRAND RAPIDS   CLEAR     -4 -11  71 NW9       30.24R WCI -20
CRANE LAKE     CLEAR    -15 -20  76 CALM      30.27S
ORR            CLEAR     -9 -18  64 CALM      30.21S
COOK           CLEAR     -9 -18  64 CALM      30.24R
WALKER         FAIR      -8 -16  67 CALM      30.29S
$$
MNZ012-019>021-037-050300-
   Northeast Minnesota

CITY           SKY/WX    TMP DP  RH WIND       PRES   REMARKS
DULUTH         CLEAR     -3 -16  53 W7        30.22R WCI -16
ELY            CLEAR     -6 -17  59 NW5       30.21R WCI -17
HIBBING        CLEAR     -4 -15  59 W8        30.24R WCI -19
EVELETH        CLEAR     -2 -13  60 W7        30.23S WCI -16
DULUTH HARBOR  CLEAR      1 -11  55 W8        30.33R WCI -12
TWO HARBORS    CLEAR      0 -11  60 W3        30.23R
SILVER BAY     CLEAR     -2 -15  55 CALM      30.22R
GRAND MARAIS     N/A      0 -12  57 VRB5      30.25R WCI -10
G MARAIS ARPRT PTCLDY    -8 -17  65 NW6       30.11R WCI -21
$$
MNZ029>031-032-039>041-046>048-054>057-064-050300-
   West Central Minnesota

CITY           SKY/WX    TMP DP  RH WIND       PRES   REMARKS
FERGUS FALLS   CLEAR     -4  -9  77 NW6       30.40R WCI -16
WHEATON        CLEAR     -6 -11  77 W7        30.41S WCI -20
MORRIS         CLEAR     -6 -11  77 NW8       30.36S WCI -21
ALEXANDRIA     CLEAR     -7 -13  75 NW6       30.32R WCI -20
ELBOW LAKE     FAIR      -4  -9  81 NW8       30.35S WCI -19
WADENA         CLEAR     -6 -11  77 W5        30.31R WCI -17
GLENWOOD       CLEAR     -6 -11  77 W8        30.33S WCI -21
APPLETON       CLEAR     -8 -15  71 W5        30.40S WCI -19
BENSON         CLEAR     -6 -13  71 NW8       30.38R WCI -21
ORTONVILLE     CLEAR     -2  -9  71 W5        30.39R WCI -12
MADISON        CLEAR     -2  -9  71 W5        30.41S WCI -12
WILLMAR        FAIR       0  -8  71 W7        30.37S WCI -13
$$
MNZ033>034-036-042>043-049>051-058-059-050300-
   Central Minnesota

CITY           SKY/WX    TMP DP  RH WIND       PRES   REMARKS
ST CLOUD       FAIR      -3 -14  59 NW8       30.34R WCI -18
SAUK CENTRE    FAIR      -7 -14  70 W6        30.33S WCI -20
PAYNESVILLE    CLEAR     -8 -14  75 SW5       30.35S WCI -20
AITKIN         CLEAR     -4 -15  59 CALM        N/A
PINE RIVER     CLEAR     -4 -13  65 NW6       30.32R WCI -16
BRAINERD       CLEAR     -3 -15  56 NW6       30.30R WCI -15
STAPLES        CLEAR     -8 -15  71 NW7       30.31R WCI -22
LONG PRAIRIE   FAIR      -4 -13  65 W5        30.32S WCI -15
LITTLE FALLS   CLEAR     -6 -15  65 CALM      30.33S
LITCHFIELD     CLEAR      0  -9  65 CALM      30.36R
BUFFALO        CLEAR      0 -12  57 W6        30.36S WCI -11
MAPLE LAKE     CLEAR      0 -10  63 W6        30.36R WCI -12
$$
MNZ037-044-045-052-053-050300-
   East Central Minnesota

CITY           SKY/WX    TMP DP  RH WIND       PRES   REMARKS
PRINCETON      CLEAR      0 -11  60 W6        30.33R WCI -12
MORA           CLEAR      0 -15  50 NW7       30.33R WCI -13
CAMBRIDGE      CLEAR      1 -11  55 W6        30.32R WCI -10
RUSH CITY      PTCLDY    -3 -15  57 NW5       30.33R WCI -14
MOOSE LAKE     CLEAR      0 -15  50 CALM      30.28R
HINCKLEY       FAIR       0 -13  55 W5        30.31R WCI -10
CLOQUET        CLEAR     -2 -17  50 W7        30.25R WCI -16
MCGREGOR       CLEAR      0 -13  55 NW8       30.29R WCI -15
$$
MNZ071>073-080-081-089-090-097-098-050300-
   Southwest Minnesota

CITY           SKY/WX    TMP DP  RH WIND       PRES   REMARKS
MONTEVIDEO     FAIR      -2  -9  71 N5        30.41R WCI -12
GRANITE FALLS  CLEAR     -1  -6  78 W9        30.41S WCI -16
CANBY          CLEAR     -3 -10  73 NW8       30.41R WCI -18
MARSHALL       CLEAR     -2 -11  65 NW10      30.39R WCI -19
REDWOOD FALLS  CLEAR      0  -9  65 NW10      30.39R WCI -16
OLIVIA         CLEAR      0  -6  78 NW7       30.38R WCI -13
PIPESTONE      CLEAR     -2  -9  71 N10       30.33R WCI -19
WINDOM         CLEAR      0  -8  71 NW9       30.36R WCI -16
WORTHINGTON    CLEAR      0  -8  71 NW8       30.37R WCI -15
JACKSON        CLEAR      3  -6  66 NW16      30.36R WCI -16
TRACY          CLEAR      0  -8  68 NW13      30.37R WCI -18
SLAYTON        CLEAR     -4 -11  72 CALM      30.35R
$$
MNZ065>067-074>077-082>085-091>093-050300-
   South Central Minnesota

CITY           SKY/WX    TMP DP  RH WIND       PRES   REMARKS
MANKATO        PTCLDY     1  -8  66 NW13      30.37R WCI -16
NEW ULM        FAIR       0  -9  65 NW10      30.39R WCI -17
ST JAMES       FAIR       3  -6  66 NW10      30.40R WCI -12
FAIRMONT       CLEAR      3  -8  60 NW13      30.37R WCI -14
GLENCOE        CLEAR      1  -8  63 W9        30.36R WCI -14
FARIBAULT      CLEAR      1  -8  66 W9        30.35R WCI -14
OWATONNA       CLEAR      1  -8  66 W9        30.35R WCI -14
WASECA         CLEAR      1  -6  71 NW13      30.36R WCI -16
ALBERT LEA     PTCLDY     3  -4  72 NW6       30.37R WCI  -8
$$
MNZ078>079-086>088-094>096-050300-
   Southeast Minnesota

CITY           SKY/WX    TMP DP  RH WIND       PRES   REMARKS
ROCHESTER      PTCLDY     2  -7  66 W12       30.33R WCI -15
RED WING       CLEAR      5 -11  47 NW7       30.33R WCI  -7
STANTON        CLEAR      1  -8  63 W8        30.34R WCI -12
DODGE CENTER   PTCLDY     1  -6  71 W12       30.32R WCI -15
WINONA         CLEAR     10  -4  52 W9        30.36R WCI  -2
AUSTIN         CLEAR      3  -6  66 NW10      30.36R WCI -12
PRESTON        CLEAR      3  -6  65 NW14      30.34R WCI -15
$$
ABBREVIATIONS USED IN REMARKS
   TC - TEMPERATURES IN CELSIUS
  WCI - WIND CHILL INDEX
   HX - HEAT INDEX
  VSB - VISIBILITY
$$


USA.gov is the U.S. government's official web portal to all federal, state and local government web resources and services.